Location: Altenst�hlen
(53.5567°N, 8.9425°E)
Time: 13:18:12
(UTC+00:00)

Cosmos 1339 Rocket - Pass Details

Date: 23 October 2019
Orbit: 943 x 1005 km, 82.9° (Epoch: 17 November)

Event Time Altitude Azimuth Distance (km) Brightness Sun altitude
Rises 17:38:40 0° 188° (S) 3,605 7.6 -13.7°
Reaches altitude 10° 17:41:08 10° 189° (S) 2,669 6.9 -14.0°
Maximum altitude 17:47:15 90° 271° (W) 967 4.5 -14.9°
Drops below altitude 10° 17:53:30 10° 11° (N) 2,725 6.8 -15.9°
Sets 17:56:02 0° 12° (NNE) 3,686 7.4 -16.3°
